Ogden Hill AFB, UT

8:48 PM MDT on June 27, 2017 (GMT -0600)
Hill Air Force Base

Weather History for KHIF - August, 2013

Change the Weather History Date:

Thursday, August 8, 2013

  Actual Average Record
Temperature  
Mean Temperature 76 °F -  
Max Temperature 87 °F 86 °F 98 °F (2012)
Min Temperature 65 °F 62 °F 55 °F (2002)
Cooling Degree Days 10    
Growing Degree Days 26 (Base 50)    
Moisture  
Dew Point 41 °F    
Average Humidity 29    
Maximum Humidity 40    
Minimum Humidity 19    
Precipitation  
Precipitation 0.00 in - - ()
Sea Level Pressure  
Sea Level Pressure 29.87 in    
Wind  
Wind Speed 11 mph (SE)    
Max Wind Speed 23 mph    
Max Gust Speed 34 mph    
Visibility 10 miles    
Events Thunderstorm    
Averages and records for this station are not official NWS values.
T = Trace of Precipitation, MM = Missing Value Source: NWS Daily Summary

Daily Weather History Graph

Daily Weather History Graph

Search for Another Location

Airport or City:

Trip Planner

Search our weather history database for the weather conditions in past years. The results will help you decide how hot, cold, wet, or windy it might be!

Date:

Astronomy

Aug. 08, 2013 Rise Set
Actual Time 6:30 AM MDT 8:35 PM MDT
Civil Twilight 6:00 AM MDT 9:05 PM MDT
Nautical Twilight 5:23 AM MDT 9:42 PM MDT
Astronomical Twilight 4:42 AM MDT 10:22 PM MDT
Moon 8:22 AM MDT (8/8) 9:14 PM MDT (8/8)
Length of Visible Light 15h 05m
Length of Day
14h 04m
Waxing Crescent, 3% of the Moon is Illuminated
Aug 8
Waxing Crescent
Aug 14
First Quarter
Aug 20
Full
Aug 28
Last Quarter
Sep 5
New

Hourly Weather History & Observations

Time (MDT) Temp. Dew Point Humidity Pressure Visibility Wind Dir Wind Speed Gust Speed Precip Events Conditions
12:58 AM 72.1 °F 42.6 °F 34% 29.85 in 10.0 mi East 4.6 mph - N/A   Clear
1:58 AM 71.6 °F 39.0 °F 31% 29.85 in 10.0 mi ESE 6.9 mph - N/A   Clear
2:58 AM 70.5 °F 39.7 °F 33% 29.85 in 10.0 mi ESE 10.4 mph - N/A   Clear
3:58 AM 69.6 °F 39.6 °F 33% 29.84 in 10.0 mi ESE 8.1 mph - N/A   Clear
4:58 AM 67.6 °F 39.9 °F 36% 29.85 in 10.0 mi ESE 10.4 mph - N/A   Clear
5:58 AM 66.6 °F 40.1 °F 38% 29.85 in 10.0 mi ESE 15.0 mph - N/A   Clear
6:58 AM 65.7 °F 40.3 °F 39% 29.86 in 10.0 mi ESE 18.4 mph - N/A   Mostly Cloudy
7:58 AM 65.8 °F 40.6 °F 40% 29.89 in 10.0 mi ESE 11.5 mph - N/A   Partly Cloudy
8:58 AM 67.8 °F 41.0 °F 38% 29.90 in 10.0 mi ESE 13.8 mph 23.0 mph N/A   Mostly Cloudy
9:58 AM 73.9 °F 42.8 °F 33% 29.89 in 10.0 mi ESE 12.7 mph - N/A   Partly Cloudy
10:58 AM 79.5 °F 43.7 °F 28% 29.88 in 10.0 mi East 5.8 mph - N/A   Clear
11:58 AM 82.9 °F 41.0 °F 23% 29.88 in 10.0 mi SW 6.9 mph - N/A   Scattered Clouds
12:58 PM 84.0 °F 43.3 °F 24% 29.86 in 10.0 mi SW 9.2 mph - N/A   Mostly Cloudy
1:58 PM 84.7 °F 41.7 °F 22% 29.85 in 10.0 mi Variable 3.5 mph - N/A   Partly Cloudy
2:58 PM 84.6 °F 41.0 °F 21% 29.83 in 10.0 mi SSW 11.5 mph - N/A   Mostly Cloudy
3:58 PM 86.9 °F 39.9 °F 19% 29.83 in 10.0 mi SSW 9.2 mph - N/A Thunderstorm Mostly Cloudy
4:47 PM 80.6 °F 41.0 °F 24% 30.05 in 10.0 mi ESE 19.6 mph - N/A   Mostly Cloudy
4:49 PM 80.6 °F 41.0 °F 24% 30.05 in 10.0 mi SSE 20.7 mph 34.5 mph N/A   Mostly Cloudy
4:58 PM 80.6 °F 41.0 °F 24% 29.87 in 10.0 mi South 23.0 mph 34.5 mph N/A Thunderstorm Mostly Cloudy
5:35 PM 78.8 °F 41.0 °F 26% 30.05 in 10.0 mi ESE 11.5 mph - N/A   Mostly Cloudy
5:58 PM 78.1 °F 41.9 °F 27% 29.86 in 10.0 mi East 21.9 mph 28.8 mph N/A   Mostly Cloudy
6:58 PM 78.6 °F 42.1 °F 27% 29.82 in 10.0 mi East 18.4 mph 27.6 mph N/A   Mostly Cloudy
7:58 PM 78.3 °F 41.0 °F 26% 29.81 in 10.0 mi East 16.1 mph 25.3 mph N/A   Overcast
8:58 PM 76.5 °F 39.2 °F 26% 29.82 in 10.0 mi East 12.7 mph 24.2 mph N/A   Overcast
9:58 PM 76.1 °F 39.7 °F 27% 29.82 in 10.0 mi East 12.7 mph 25.3 mph N/A   Clear
10:58 PM 75.0 °F 39.4 °F 28% 29.81 in 10.0 mi ESE 16.1 mph 23.0 mph N/A   Clear
11:58 PM 72.9 °F 40.3 °F 31% 29.83 in 10.0 mi ESE 19.6 mph 20.7 mph N/A   Clear